www.pogodaiklimat.ru

Погода и климат >> Архив погоды >> Россия >> Краснодарский край >> Геленджик


АРХИВ ПОГОДЫ в Геленджике

Время (UTC), дата Ветер
(напр.,м/с)
 
Видим.   Явления Облачность Т
(С)
Тd
(С)
f
(%)
Тe
(С)
Тes
(С)
Комфортность P
(гПа)
Po
(гПа)
Тmin
(С)
Tmax
(С)
R
(мм)
R24
(мм)
S
(см)
00 21.05 В 1 10 км 3/3 600 м
[Sc]
+13.8 +10.8 82 +14 +14 по сезону 1009.4 1007.7
03 21.05 В 1 20 км 8/8 600 м
[Cu Sc]
+14.0 +11.0 82 +14 +15 по сезону 1009.5 1007.7 +13.0
06 21.05 ЮВ 2 50 км 4/3 600 м
[Sc Cc]
+15.9 +10.7 71 +16 +23 по сезону 1009.7 1007.9
09 21.05 ЮВ 3 50 км 6/3 600 м
[Cu med, cong Cc]
+16.6 +11.1 70 +16 +26 по сезону 1009.9 1008.1
12 21.05 ЮВ 3 50 км 4/3 600 м
[Cu med, cong Ci fib]
+16.6 +10.9 69 +16 +24 по сезону 1010.3 1008.5
15 21.05 ЮВ 2 50 км 10/3 600 м
[Sc Cc]
+16.0 +10.0 68 +16 +17 по сезону 1010.1 1008.3 +16.8
18 21.05 В 1 10 км 10/3 600 м
[Sc Ac und]
+14.6 +9.9 73 +15 +15 по сезону 1011.0 1009.2
21 21.05 СВ 1 10 км 10/6 600 м
[Sc Ac trans Cc]
+13.7 +10.6 82 +14 +14 по сезону 1010.4 1008.6
00 22.05 В 1 10 км 10/10 600 м
[Sc]
+13.8 +10.6 81 +14 +14 по сезону 1009.5 1007.7
03 22.05 ЮВ 1 50 км {ливн. осадки} 10/10 1000 м
[Cb cap]
+13.6 +11.7 88 +14 +14 по сезону 1009.3 1007.5 +13.4
06 22.05 штиль 0 10 км слабый ливневой дождь 10/10 300 м
[Cb cap]
+13.6 +11.1 85 +13 +13 прохладно 1009.7 1007.9
09 22.05 СВ 1 10 км слабый ливневой дождь 10/10 300 м
[Cb cap]
+13.5 +12.2 92 +14 +14 прохладно 1010.1 1008.3
12 22.05 З 1 20 км {ливн. осадки} 10/10 600 м
[Cb cap]
+14.5 +10.2 75 +15 +15 прохладно 1010.2 1008.4
15 22.05 В 2 10 км слабый ливневой дождь 10/10 300 м
[Cb cap]
+13.0 +10.6 85 +12 +12 прохладно 1010.7 1008.9 +15.7 2
18 22.05 СВ 1 10 км {ливн. осадки} 8/6 600 м
[Cb cap Ac trans]
+11.9 +10.8 93 +12 +12 прохладно 1012.0 1010.2
21 22.05 СЗ 1 10 км {ливн. осадки} 9/8 300 м
[Cb cap Ac trans]
+13.7 +10.7 82 +14 +14 по сезону 1012.2 1010.4
00 23.05 ЮЗ 1 10 км {ливн. осадки} 6/6 600 м
[Cu Sc]
+12.9 +8.9 77 +13 +13 по сезону 1012.0 1010.2
03 23.05 В 1 50 км 3/0
[Ci fib]
+11.9 +10.2 89 +12 +13 прохладно 1012.4 1010.6 +9.9 1
06 23.05 Ю 1 50 км 8/3 600 м
[Cu Sc Cs]
+15.0 +8.6 66 +16 +23 по сезону 1013.5 1011.7
09 23.05 З 2 50 км 10/6 1000 м
[Cu Sc Ac trans Cs]
+15.4 +9.7 69 +15 +19 прохладно 1014.0 1012.2
12 23.05 З 4 50 км 10/8 600 м
[Cb cap Ac lent Cs]
+15.4 +9.9 70 +14 +15 холодно 1014.5 1012.7
15 23.05 ЮЗ 1 10 км слабый ливневой дождь 10/10 600 м
[Cb cap]
+13.6 +11.0 84 +14 +14 прохладно 1015.7 1013.9 +16.5 3
18 23.05 СЗ 1 10 км слабый ливневой дождь 10/10 300 м
[Cb cap]
+12.5 +11.2 92 +12 +12 прохладно 1016.7 1014.9
21 23.05 штиль 0 10 км в посл. час ливневой дождь 10/10 300 м
[Cb cap]
+12.6 +11.6 94 +12 +12 по сезону 1017.2 1015.4
00 24.05 штиль 0 10 км в посл. час ливневой дождь 10/10 300 м
[Cb cap]
+12.3 +11.4 94 +12 +12 по сезону 1016.8 1015.0
03 24.05 В 1 20 км {ливн. осадки} 10/10 600 м
[Sc diur, vesp]
+12.2 +11.2 94 +12 +12 прохладно 1017.1 1015.3 +12.1 11
06 24.05 В 1 50 км {ливн. осадки} 10/4 600 м
[Sc diur, vesp Ac trans Cc]
+15.7 +11.3 75 +16 +20 по сезону 1017.7 1015.9
09 24.05 ЮВ 2 50 км 10/10 600 м
[Cb calv]
+14.8 +11.2 79 +15 +15 прохладно 1018.7 1016.9
12 24.05 ЮЗ 1 10 км слабый ливневой дождь 10/10 300 м
[Cb cap]
+14.6 +11.1 80 +15 +15 прохладно 1019.1 1017.3
15 24.05 С 1 10 км слабый ливневой дождь 10/10 600 м
[Cb cap]
+14.0 +12.4 90 +14 +14 прохладно 1019.3 1017.5 +15.8 1
18 24.05 СВ 1 10 км слабый ливневой дождь 10/10 600 м
[Cb cap]
+12.7 +11.2 91 +13 +13 прохладно 1019.7 1017.9
21 24.05 СВ 2 10 км {ливн. осадки} 8/8 600 м
[Cb cap]
+12.1 +10.4 89 +11 +11 прохладно 1019.8 1018.0
00 25.05 СВ 2 10 км {ливн. осадки} 10/6 600 м
[Sc diur, vesp Ac und]
+11.2 +9.8 91 +10 +10 прохладно 1019.3 1017.5
03 25.05 штиль 0 50 км 10/1 1000 м
[Sc Ac trans Cc]
+10.5 +9.7 95 +10 +10 холодно 1018.9 1017.1 +10.2 0.5
06 25.05 штиль 0 50 км 9/5 1000 м
[Cu Sc Ac trans Cc]
+15.2 +8.7 65 +15 +19 по сезону 1018.9 1017.1
09 25.05 ЮЗ 1 50 км 8/4 600 м
[Cb cap Ac trans Cc]
+17.3 +9.8 61 +18 +27 по сезону 1019.1 1017.3
12 25.05 З 2 50 км 8/6 600 м
[Cb cap Ac trans Cc]
+17.6 +8.7 56 +18 +22 по сезону 1018.8 1017.0
15 25.05 З 2 50 км 4/3 600 м
[Sc Cc]
+16.7 +10.3 66 +17 +19 по сезону 1017.8 1016.0 +17.8
18 25.05 ЮВ 1 10 км 4/3 600 м
[Sc Cc]
+13.1 +10.1 82 +13 +13 прохладно 1017.5 1015.7
21 25.05 штиль 0 10 км ясно +11.7 +9.1 84 +11 +11 прохладно 1017.1 1015.3
00 26.05 В 1 10 км ясно +10.4 +8.7 89 +10 +10 прохладно 1016.4 1014.6
03 26.05 СВ 1 50 км ясно +11.7 +10.6 93 +11 +12 прохладно 1015.9 1014.1 +10.0
06 26.05 ЮЗ 1 50 км ясно +17.4 +10.0 62 +18 +30 опасность
простуды
1015.4 1013.6
09 26.05 ЮЗ 2 50 км ясно +18.9 +11.0 60 +20 +39 опасность
простуды
1015.4 1013.6
12 26.05 З 2 50 км ясно +19.2 +10.6 57 +21 +34 комфорт 1014.4 1012.6
15 26.05 З 3 50 км 3/0
[Cc]
+18.4 +11.5 64 +19 +21 тепло 1012.9 1011.1 +19.5
18 26.05 СВ 1 10 км 4/0
[Cc]
+13.7 +10.4 80 +14 +14 по сезону 1012.3 1010.5
21 26.05 ЮВ 1 10 км ясно +12.2 +7.5 73 +12 +12 прохладно 1011.8 1010.0
00 27.05 С 1 10 км ясно +12.2 +8.7 79 +12 +12 по сезону 1011.2 1009.4
03 27.05 СВ 1 50 км 3/0
[Cc]
+12.3 +10.1 86 +12 +13 прохладно 1011.3 1009.5 +10.6
06 27.05 ЮВ 1 50 км 3/0
[Cc]
+18.1 +10.9 63 +19 +30 тепло 1011.7 1010.0
09 27.05 Ю 2 50 км 4/0
[Cc]
+19.5 +12.2 63 +21 +39 комфорт 1012.2 1010.4
12 27.05 ЮЗ 1 50 км 3/1 600 м
[Cu med, cong Cc]
+20.2 +14.1 68 +24 +37 комфорт 1011.9 1010.1
15 27.05 ЮЗ 2 50 км 1/1 600 м
[Cu med, cong]
+19.2 +14.6 75 +21 +24 комфорт 1011.3 1009.6 +20.4
18 27.05 В 1 50 км ясно +16.1 +14.3 89 +17 +17 по сезону 1012.5 1010.7

 

Местоположение метеостанции Геленджик (Краснодарский край, Россия): широта 44.57 долгота 38.08 высота над уровнем моря 15 м.

В архиве по умолчанию представлена погода в Геленджике за последнюю неделю. Архивные данные за месяц целиком и за предыдущие месяцы, начиная с января 2011 года, Вы можете получить, выбрав интересующий диапазон дат из раскрывающегося списка и нажав кнопку "Ввод!".

Внимание! Время в таблицах - всемирное. Для получения местного времени необходимо прибавить поправку, которая в Геленджике равна 3 ч.

Смотрите также архив погоды в соседних городах и на ближайших метеорологических станциях:

Погода в Новороссийске (Краснодарский край, Россия) (25 км)
Погода в Крымске (Краснодарский край, Россия) (39 км)
Погода в Джубге (Краснодарский край, Россия) (57 км)
Погода в Анапе (Краснодарский край, Россия) (72 км)
Погода в Славянске-на-Кубани (Краснодарский край, Россия) (79 км)
Погода в Горячем Ключе (Краснодарский край, Россия) (81 км)
Погода в Краснодаре (Краснодарский край, Россия) (92 км)
Погода в Туапсе (Краснодарский край, Россия) (95 км)
Погода в Горном (Краснодарский край, Россия) (100 км)
Погода в Темрюке (Краснодарский край, Россия) (100 км)

Пояснения к столбцам:

Ветер - указаны скорость ветра в м/с - средняя за 10 мин, порывы в срок и между сроками (в фигурных скобках) и направление, откуда дует ветер: С - северный, СВ - северо-восточный, В - восточный, ЮВ - юго-восточный, Ю - южный, ЮЗ - юго-западный, З - западный, СЗ - северо-западный.
Видимость - горизонтальная дальность видимости в метрах или километрах. При видимости от 1 до 10 км при отсутствии осадков обычно наблюдается дымка, при ухудшении видимости до 1 км и менее - туман. В сухую погоду видимость может ухудшаться дымом, пылью или мглою.
Явления - указаны атмосферные явления, наблюдавшиеся в срок или в последний час перед сроком; фигурными скобками обозначены явления, наблюдавшиеся между сроками (за 1-3 часа до срока); квадратными скобками обозначены град или гололедные отложения с указанием их диаметра в мм.
Облачность - указаны через наклонную черту общая и нижняя облачность в баллах и высота нижней границы облаков в метрах; квадратными скобками обозначены формы облаков: Ci - перистые, Cs - перисто-слоистые, Cc - перисто-кучевые, Ac - высококучевые, As - высокослоистые, Sc - слоисто-кучевые, Ns - слоисто-дождевые, Cu - кучевые, Cb - кучево-дождевые. Подробнее классификацию облаков см. в Атласе облаков (PDF).
T - Температура воздуха - температура, измеренная на высоте 2 м над землей.
Td - Температура точки росы - температура, при понижении до которой содержащийся в воздухе водяной пар достигнет насыщения.
f - Относительная влажность воздуха - влажноcть воздуха, измеренная на высоте 2 м над землей.
Te - Эффективная температура - температура, которую ощущает одетый по сезону человек в тени. Характеристика душности погоды. При расчете учитывается влияние влажности воздуха и скорости ветра на теплоощущения человека.
Tes - Эффективная температура на солнце - температура, которую ощущает человек, с поправкой на солнечный нагрев. Характеристика знойности погоды. Зависит от высоты солнца над горизонтом, облачности и скорости ветра. Ночью, в пасмурную погоду, а также при ветре 12 м/с и более поправка равна нулю.
P - Атмосферное давление - приведенное к уровню моря атмосферное давление.
Po - Атмосферное давление - измеренное на уровне метеостанции атмосферное давление.
Tmin - Минимальная температура - минимум температуры воздуха на высоте 2 м над землей.
Tmax - Максимальная температура - максимум температуры воздуха на высоте 2 м над землей.
R - Количество осадков - Количество выпавших осадков за период времени, мм. При наведении курсора мыши на число - период времени, за который выпало указанное количество осадков.
R24 - Количество осадков - Количество выпавших осадков за 24 часа, мм.
S - Снежный покров - Высота снежного покрова, см. При наведении курсора мыши на число - состояние снежного покрова и степень покрытия местности в баллах.